Home   Weather   Bandar-Abbas   Past weeks

Flag for Iran Past Weather in Bandar-Abbas, Iran — Yesterday and Last 2 Weeks

97 °F


Feels Like: 92 °F
Forecast: 65 / 91 °F
Wind: 16 mph from East

Location: Bandarabbass

Current Time: Oct 26, 2016 at 11:14:31 AM

Latest Report: Oct 26, 2016 at 10:30 AM

Visibility: 2 mi

Pressure: 29.98 "Hg

Humidity: 13%

Dew Point: 39 °F

Location of Bandar-AbbasLocation

Past Weather in Bandar-Abbas — Graph


Bandar-Abbas Temperature Yesterday

Maximum temperature yesterday: 97 °F (at 11:00 AM)
Minimum temperature yesterday: 70 °F (at 5:30 AM)
Average temperature yesterday: 84 °F

High & Low Weather Summary for the Past Weeks

High99 °F (Oct 22, 2:00 PM)94% (Oct 14, 5:30 AM)29.98 "Hg (Oct 14, 5:30 AM)
Low66 °F (Oct 24, 4:30 AM)14% (Oct 26, 10:00 AM)29.71 "Hg (Oct 11, 1:30 PM)
Average85 °F63%29.82 "Hg
* Reported Oct 11 9:30 AM — Oct 26 10:00 AM, Bandar-Abbas, Weather by CustomWeather, © 2016

Note: Actual official high and low records may vary slightly from our data, if they occured in-between our weather recording intervals... More about our weather records


Bandar-Abbas Weather History for the Previous 24 Hours

Scroll right to see more
Time TempWeatherWind HumidityBarometerVisibility
10:00 AM
Wed, Oct 26
95 °FSandstorm.16 mph14%29.98 "Hg2 mi
9:30 AM93 °FClear.16 mph16%29.98 "Hg4 mi
9:00 AM91 °FSunny.14 mph18%29.98 "Hg10 mi
8:30 AM86 °FSunny.5 mph29%29.98 "Hg10 mi
8:00 AM81 °FSunny.5 mph42%29.95 "Hg10 mi
7:30 AM77 °FSunny.5 mph47%29.95 "Hg10 mi
7:00 AM75 °FSunny.5 mph50%29.92 "Hg10 mi
6:30 AM75 °FSunny.9 mph44%29.92 "Hg10 mi
6:00 AM73 °FClear.9 mph50%29.89 "Hg5 mi
5:30 AM68 °FClear.7 mph69%29.89 "Hg4 mi
4:30 AM72 °FClear.5 mph69%29.89 "Hg4 mi
3:30 AM73 °FClear.5 mph78%29.86 "Hg4 mi
2:30 AM75 °FClear.7 mph78%29.86 "Hg4 mi
1:30 AM73 °FClear.7 mph78%29.86 "Hg4 mi
1:00 AM73 °FClear.7 mph78%29.86 "Hg4 mi
12:30 AM73 °FClear.5 mph78%29.86 "Hg4 mi
12:00 AM73 °FClear.5 mph78%29.86 "Hg5 mi
11:30 PM
Tue, Oct 25
75 °FClear.5 mph78%29.86 "Hg5 mi
11:00 PM75 °FClear.7 mph78%29.89 "Hg5 mi
10:30 PM73 °FClear.7 mph78%29.89 "Hg10 mi
10:00 PM73 °FClear.5 mph78%29.89 "Hg10 mi
9:30 PM73 °FClear.5 mph74%29.86 "Hg10 mi
9:00 PM73 °FClear.5 mph74%29.86 "Hg10 mi
8:30 PM75 °FClear.No wind69%29.86 "Hg10 mi
8:00 PM84 °FClear.7 mph66%29.86 "Hg10 mi
7:30 PM81 °FClear.7 mph66%29.83 "Hg10 mi
7:00 PM84 °FClear.7 mph55%29.83 "Hg10 mi
6:30 PM86 °FClear.7 mph55%29.83 "Hg10 mi
6:00 PM88 °FClear.5 mph49%29.83 "Hg10 mi
5:30 PM88 °FSunny.9 mph49%29.80 "Hg10 mi
5:00 PM93 °FSunny.5 mph28%29.80 "Hg10 mi
4:30 PM97 °FSunny.7 mph25%29.77 "Hg10 mi
4:00 PM95 °FSunny.9 mph28%29.77 "Hg10 mi
3:30 PM95 °FSunny.9 mph34%29.80 "Hg10 mi
3:00 PM95 °FClear.9 mph30%29.80 "Hg4 mi
2:30 PM95 °FClear.9 mph32%29.80 "Hg4 mi
2:00 PM95 °FClear.12 mph34%29.83 "Hg4 mi
1:30 PM95 °FClear.12 mph32%29.83 "Hg4 mi
1:00 PM95 °FClear.9 mph32%29.83 "Hg4 mi
12:30 PM95 °FClear.9 mph32%29.86 "Hg4 mi
12:00 PM97 °FClear.9 mph32%29.86 "Hg4 mi
11:30 AM95 °FClear.12 mph36%29.89 "Hg4 mi
11:00 AM97 °FClear.5 mph34%29.89 "Hg4 mi
Weather by CustomWeather, © 2016

See weather overviewHow to use our weather pages